This is the latest recevied weather packets stored in our database for station/object WX5HOT. If no packets are shown the sender has not sent any weather packets the latest 10 day(s).
| Time | Temp. | Humidity | Pressure | Rain* | Wind** | Luminosity | Snow |
|---|---|---|---|---|---|---|---|
| 1778089845 | 6.67° C | 99% | 1065.5 hPa | 1.27 mm | - | 74 W/m² | - |
| 1778089544 | 6.67° C | 99% | 1065.4 hPa | 0 mm | - | 83 W/m² | - |
| 1778089239 | 6.67° C | 99% | 1065.3 hPa | 0 mm | - | 141 W/m² | - |
| 1778088938 | 6.67° C | 99% | 1065.3 hPa | 1.78 mm | - | 147 W/m² | - |
| 1778088634 | 6.67° C | 99% | 1065.6 hPa | 1.78 mm | - | 90 W/m² | - |
| 1778088332 | 6.67° C | 99% | 1066.2 hPa | 0 mm | - | 104 W/m² | - |
| 1778088028 | 6.67° C | 99% | 1066.3 hPa | 0 mm | - | 64 W/m² | - |
| 1778087725 | 6.67° C | 99% | 1066.6 hPa | 0 mm | - | 43 W/m² | - |
| 1778087423 | 7.22° C | 99% | 1065.9 hPa | 1.27 mm | - | 42 W/m² | - |
| 1778087121 | 6.67° C | 99% | 1065.4 hPa | 1.27 mm | - | 29 W/m² | - |
| 1778086818 | 6.67° C | 99% | 1065.6 hPa | 0 mm | - | 38 W/m² | - |
| 1778086516 | 6.67° C | 99% | 1066.1 hPa | 0 mm | - | 48 W/m² | - |
| 1778086212 | 7.22° C | 99% | 1065.5 hPa | 0 mm | - | 48 W/m² | - |
| 1778085908 | 6.67° C | 99% | 1065.1 hPa | 3.05 mm | - | 53 W/m² | - |
| 1778085606 | 6.67° C | 99% | 1065.2 hPa | 3.05 mm | - | 78 W/m² | - |
| 1778085302 | 6.67° C | 99% | 1064.7 hPa | 0 mm | - | 85 W/m² | - |
| 1778084996 | 6.67° C | 99% | 1065.1 hPa | 0 mm | - | 50 W/m² | - |
| 1778084695 | 6.67° C | 99% | 1064.8 hPa | 0 mm | - | 91 W/m² | - |
| 1778084391 | 7.22° C | 99% | 1064.7 hPa | 0 mm | - | 148 W/m² | - |
| 1778084089 | 7.22° C | 99% | 1065.1 hPa | 0 mm | - | 91 W/m² | - |
| 1778083786 | 7.22° C | 99% | 1065.6 hPa | 0 mm | - | 68 W/m² | - |
| 1778083483 | 7.22° C | 99% | 1065.3 hPa | 0 mm | - | 79 W/m² | - |
| 1778083181 | 7.22° C | 99% | 1065.1 hPa | 1.78 mm | - | 43 W/m² | - |
| 1778082879 | 6.67° C | 99% | 1064.6 hPa | 1.78 mm | - | 73 W/m² | - |
| 1778081765 | 7.22° C | 99% | 1064.7 hPa | 0 mm | - | 99 W/m² | - |
* Rain latest hour (hover to see other rain measurements)
** Current wind speed in m/s (hover to see current wind gust speed)